Flag for Germany Weather past 2 weeks in Deggendorf, Bavaria, Germany

Now
58 °F

Sunny.


Feels Like: 58 °F
Forecast: 45 / 72 °F
Wind: 1 mph from Northeast

Location: Straubing

Current Time: Sep 17, 2014 at 9:33:23 AM

Latest Report: Sep 17, 2014 at 9:00 AM


Visibility: 13 mi

Pressure: 29.99 "Hg

Humidity: 85%

Dew point: 53 °F

Location of DeggendorfLocation

Historic Weather in Deggendorf — Graph

°F

Deggendorf temperature yesterday

Maximum temperature yesterday: 71 °F (at 5:00 PM)
Minimum temperature yesterday: 50 °F (at 6:00 AM)
Average temperature yesterday: 61 °F

Past Weeks' High & Low Weather Summary

 TemperatureHumidityPressure
High77 °F (Sep 7, 4:00 PM)100% (Sep 6, 8:00 AM)30.14 "Hg (Sep 6, 8:00 AM)
Low47 °F (Sep 13, 4:00 AM)50% (Sep 10, 4:00 PM)29.85 "Hg (Sep 6, 6:00 PM)
Average61 °F83%30.01 "Hg
* Reported Sep 2 8:00 AM — Sep 17 8:00 AM, Deggendorf, Weather by CustomWeather, © 2014

Note: Actual official high and low records may vary slightly from our data, if they occured in-between our weather recording intervals... More about our weather records

Advertising

Deggendorf weather history for previous 24 hours

 ConditionsComfort  
Time TempWeatherWind HumidityBarometerVisibility
8:00 AM
Sep 17
53 °FSunny.2 mph95%30.00 "Hg5 mi
7:00 AM49 °FScattered clouds.1 mph97%30.00 "Hg2 mi
6:00 AM51 °FPassing clouds.1 mph99%29.98 "Hg3 mi
4:00 AM54 °FClear.1 mph97%29.99 "Hg6 mi
3:00 AM54 °FClear.No wind92%30.00 "Hg9 mi
2:00 AM56 °FClear.1 mph95%30.00 "Hg11 mi
1:00 AM56 °FClear.1 mph92%30.00 "Hg11 mi
12:00 AM57 °FClear.2 mph88%30.00 "Hg16 mi
11:00 PM
Sep 16
57 °FClear.3 mph89%30.00 "Hg14 mi
10:00 PM59 °FClear.2 mph87%30.01 "Hg13 mi
9:00 PM62 °FClear.2 mph77%29.99 "Hg19 mi
8:00 PM64 °FPassing clouds.2 mph77%29.97 "Hg19 mi
7:00 PM68 °FSunny.2 mph66%29.96 "Hg25 mi
6:00 PM71 °FSunny.3 mph59%29.96 "Hg25 mi
5:00 PM71 °FSunny.3 mph57%29.96 "Hg17 mi
4:00 PM71 °FSunny.3 mph58%29.96 "Hg22 mi
3:00 PM70 °FPassing clouds.5 mph60%29.98 "Hg16 mi
2:00 PM69 °FScattered clouds.3 mph64%30.00 "Hg19 mi
1:00 PM67 °FPartly sunny.5 mph69%30.01 "Hg14 mi
12:00 PM65 °FOvercast.3 mph73%30.03 "Hg12 mi
11:00 AM63 °FScattered clouds.3 mph74%30.03 "Hg9 mi
10:00 AM63 °FPassing clouds.1 mph78%30.03 "Hg7 mi
9:00 AM59 °FSunny.1 mph86%30.04 "Hg7 mi
Weather by CustomWeather, © 2014

See weather overviewHow to use our weather pages